[[{"header":{"parameterUnit":"m.s-1","parameterCategory":1,"la1":30.2991,"la2":30.254,"lo1":-89.0895,"lo2":-89.0444,"dy":0.0017,"dx":0.0017,"nx":28,"ny":28,"refTime":"2024-07-16T21:00:00:Z","depth":0,"parameterNumber":2,"parameterNumberName":"U-component_of_WINDS"},"data":[0,0,0,0,0,0,0,0,0,0,0,0,0,0,0,0,0,0,0,0,0,0,0,0,0,0,0,0,0,0,0,0,0,0,0,0,0,0,0,0,0,0,0,0,0,0,0,0,0,0,0,0,0,0,0,0,0,0,2.2577,2.2578,0,2.267,2.2671,2.2672,2.2671,2.267,2.2669,2.2668,2.2762,2.2766,2.2769,0,0,0,0,0,0,0,0,0,0,0,0,0,2.2396,2.2399,2.2577,2.2578,2.258,2.267,2.2671,2.2673,2.2671,2.267,2.2668,2.2667,2.2761,2.2765,2.277,0,0,0,0,0,0,0,0,0,0,0,0,0,2.248,2.24,2.2577,2.259,2.2592,2.267,2.2671,2.2673,2.2672,2.267,2.2668,2.2666,2.276,2.2765,2.277,2.2841,0,0,2.2787,2.279,0,0,0,0,0,0,0,0,2.2476,2.2487,2.2587,2.2589,2.2592,2.2657,2.2642,2.2729,2.2672,2.2641,2.2668,2.2665,2.2729,2.2737,2.2758,2.2846,2.285,2.2788,2.2791,2.2793,2.2795,0,0,0,0,0,0,0,2.247,2.2483,2.2614,2.2588,2.2591,2.259,2.26,2.2659,2.2694,2.2644,2.2644,2.2655,2.273,2.2753,2.276,2.2851,2.2787,2.2792,2.2796,2.2798,2.2998,2.3,0,0,0,0,0,0,2.2461,2.2478,2.2611,2.2617,2.2528,2.2595,2.2606,2.2638,2.2694,2.27,2.2657,2.2655,2.2744,2.2754,2.2764,2.2848,2.2793,2.2798,2.2802,2.2996,2.2999,2.3001,0,0,0,0,0,0,2.2458,2.2473,2.2607,2.2548,2.2565,2.26,2.2636,2.2641,2.2664,2.2703,2.2709,2.2674,2.2743,2.2756,2.2821,2.2851,2.2801,2.2806,2.2994,2.2997,2.3,2.3019,0,0,0,0,0,0,2.2452,2.2472,2.25,2.2548,2.2568,2.2664,2.2638,2.2644,2.2674,2.2672,2.2721,2.2727,2.2743,2.2813,2.2827,2.2858,2.281,2.2991,2.2995,2.2999,2.3016,2.3022,2.3028,0,0,0,0,0,2.2446,2.2502,2.2502,2.2518,2.2604,2.2666,2.2677,2.2694,2.2676,2.2704,2.2729,2.2726,2.2846,2.282,2.2835,2.2869,2.299,2.2994,2.2999,2.3013,2.3021,2.3028,0,0,0,0,0,0,2.2457,2.2509,2.2509,2.2583,2.262,2.2666,2.2702,2.2702,2.2745,2.2742,2.2761,2.2772,2.2836,2.2859,2.2829,2.2939,2.2916,2.2923,2.2921,2.2929,2.2935,2.2927,2.2815,0,0,0,0,0,2.2468,2.2515,2.2558,2.2619,2.2637,2.2666,2.2694,2.2703,2.2743,2.2758,2.2788,2.2826,2.2872,2.2902,2.2947,2.3019,2.3028,2.305,2.3056,2.306,2.3066,2.3103,2.3112,2.3016,2.3016,2.3016,0,0,2.2492,2.2526,2.2554,2.2622,2.2652,2.2698,2.268,2.2731,2.2765,2.2766,2.2829,2.2852,2.2895,2.2964,2.2995,2.2985,2.3095,2.3066,2.307,2.3073,2.3109,2.3118,2.3126,2.3019,2.3019,2.3018,0,0,2.2558,2.2589,2.2642,2.2672,2.2717,2.2736,2.2748,2.2794,2.2809,2.2872,2.2873,2.2914,2.2994,2.3024,2.305,2.3124,2.3122,2.3138,2.3169,2.3205,2.3213,2.3219,2.3243,2.3252,2.3145,2.3145,2.3145,0,2.2581,2.2652,2.2669,2.2719,2.2748,2.2751,2.2803,2.2831,2.2889,2.2908,2.2896,2.2994,2.3023,2.3097,2.3115,2.3137,2.315,2.3132,2.321,2.3217,2.3224,2.3247,2.3256,2.3146,2.3146,2.3146,2.3146,0,2.2677,2.2726,2.2763,2.2817,2.285,2.2902,2.2925,2.2956,2.2962,2.2981,2.3044,2.308,2.313,2.3149,2.3156,2.3223,2.3215,2.3206,2.3183,2.3234,2.3256,2.3265,2.3148,2.3148,2.3147,2.3147,0,0,2.2753,2.2815,2.2828,2.2851,2.2901,2.2938,2.2989,2.3038,2.3063,2.3102,2.3144,2.321,2.3201,2.323,2.3241,2.3272,2.3326,2.3259,2.3261,2.3268,2.3399,2.3403,2.3413,2.3325,2.3327,2.3328,2.3394,0,2.2822,2.2912,2.2927,2.3005,2.3049,2.3052,2.3095,2.3129,2.3148,2.3188,2.3209,2.3254,2.3241,2.3258,2.3289,2.3312,2.3352,2.3308,2.3362,2.3364,2.3349,2.3425,2.3431,2.3491,2.3403,2.3405,2.3406,0,2.2915,2.2955,2.3037,2.3078,2.3097,2.3136,2.3181,2.3219,2.3257,2.3268,2.33,2.3306,2.3356,2.3332,2.3401,2.3371,2.3393,2.3408,2.3411,2.3415,2.3386,2.3429,2.3511,2.352,2.342,2.3419,2.3418,0,2.2959,2.3034,2.3092,2.3112,2.3162,2.3189,2.3211,2.3247,2.3275,2.3314,2.3331,2.3376,2.34,2.3434,2.3451,2.3432,2.3518,2.3495,2.3527,2.3526,2.3544,2.3542,2.3628,2.3562,2.3562,2.3562,2.3562,0,2.3033,2.3083,2.3112,2.3147,2.3202,2.3219,2.3272,2.3294,2.3325,2.3364,2.3369,2.3405,2.3427,2.3465,2.3479,2.3532,2.3544,2.3553,2.3556,2.3552,2.355,2.3566,2.3561,2.3564,2.3564,2.3563,2.3563,0,2.3091,2.3113,2.3176,2.3217,2.3229,2.3267,2.3302,2.3335,2.3354,2.3402,2.3415,2.3443,2.3489,2.3509,2.3566,2.3575,2.3635,2.3636,2.3622,2.3622,2.3652,2.3648,2.375,2.3763,2.369,2.369,2.3691,0,2.3136,2.3174,2.3219,2.3245,2.3267,2.331,2.3337,2.3355,2.3383,2.3428,2.3456,2.3501,2.3539,2.3611,2.3636,2.3679,2.3679,2.3712,2.3686,2.3679,2.3677,2.3673,2.3676,2.3716,2.3717,2.3717,2.3718,0,2.3213,2.3221,2.3261,2.3304,2.3337,2.3372,2.3406,2.3427,2.345,2.3481,2.3527,2.3556,2.3613,2.3657,2.3701,2.3723,2.3723,2.3726,2.3735,2.373,2.372,2.3723,2.3632,2.3723,2.3723,2.3722,2.3722,2.3722,2.3264,2.3297,2.3333,2.3376,2.3403,2.3435,2.3467,2.3489,2.3528,2.3575,2.3584,2.3632,2.3667,2.3726,2.3748,2.3786,2.3778,2.3792,2.3795,2.3798,2.3798,2.3715,2.3794,2.3794,2.3794,2.3794,2.3794,0,2.3339,2.3362,2.3402,2.3448,2.3482,2.348,2.3517,2.3545,2.3588,2.362,2.3656,2.3708,2.375,2.3779,2.3821,2.3845,2.3847,2.3856,2.3853,2.3858,2.3804,2.3791,2.3854,2.3854,2.3854,2.3854,2.3854,2.3854,2.3381,2.3436,2.3448,2.3515,2.3537,2.3585,2.3605,2.3633,2.3659,2.3716,2.3752,2.377,2.38,2.3844,2.3882,2.3889,2.3904,2.3913,2.3919,2.3868,2.3862,2.3856,2.3843,2.3916,2.3917,2.397,2.397,2.397]},{"header":{"parameterUnit":"m.s-1","parameterCategory":1,"la1":30.2991,"la2":30.254,"lo1":-89.0895,"lo2":-89.0444,"dy":0.0017,"dx":0.0017,"nx":28,"ny":28,"refTime":"2024-07-16T21:00:00:Z","depth":0,"parameterNumber":3,"parameterNumberName":"V-component_of_WINDS"},"data":[0,0,0,0,0,0,0,0,0,0,0,0,0,0,0,0,0,0,0,0,0,0,0,0,0,0,0,0,0,0,0,0,0,0,0,0,0,0,0,0,0,0,0,0,0,0,0,0,0,0,0,0,0,0,0,0,0,0,5.8514,5.8515,0,5.8599,5.8599,5.86,5.854,5.8537,5.8535,5.8532,5.8611,5.8615,5.862,0,0,0,0,0,0,0,0,0,0,0,0,0,5.8291,5.8296,5.8514,5.8515,5.8516,5.8598,5.86,5.8601,5.854,5.8537,5.8534,5.8531,5.8609,5.8615,5.862,0,0,0,0,0,0,0,0,0,0,0,0,0,5.8383,5.8297,5.8514,5.8496,5.8495,5.8598,5.86,5.8601,5.8541,5.8537,5.8533,5.8529,5.8608,5.8614,5.8621,5.8743,0,0,5.8642,5.8645,0,0,0,0,0,0,0,0,5.8378,5.8391,5.8498,5.8498,5.8497,5.8555,5.855,5.8648,5.8542,5.8524,5.8532,5.8527,5.8595,5.8603,5.8627,5.8747,5.875,5.8643,5.8647,5.865,5.8652,0,0,0,0,0,0,0,5.8372,5.8387,5.8547,5.8499,5.8499,5.8481,5.849,5.8568,5.858,5.8525,5.8521,5.8532,5.8594,5.862,5.8628,5.8752,5.8642,5.8649,5.8653,5.8655,5.8973,5.8977,0,0,0,0,0,0,5.8368,5.8382,5.8544,5.855,5.8427,5.8488,5.8498,5.854,5.8579,5.8582,5.8535,5.8529,5.8611,5.862,5.8631,5.8775,5.865,5.8656,5.866,5.8969,5.8974,5.8979,0,0,0,0,0,0,5.8364,5.8383,5.8541,5.8465,5.8484,5.8496,5.8544,5.8544,5.857,5.8587,5.8588,5.8561,5.8608,5.8621,5.8716,5.8777,5.8659,5.8665,5.8964,5.897,5.8976,5.9065,0,0,0,0,0,0,5.8357,5.8382,5.8431,5.8467,5.8488,5.8628,5.8548,5.8548,5.8583,5.8576,5.8612,5.8614,5.8606,5.8706,5.8723,5.8784,5.8671,5.8958,5.8967,5.8974,5.9057,5.9074,5.9088,0,0,0,0,0,5.835,5.8451,5.8434,5.8454,5.855,5.8631,5.8643,5.8634,5.8589,5.8636,5.8647,5.8612,5.8768,5.8716,5.8734,5.8799,5.8954,5.8964,5.8974,5.905,5.907,5.9088,0,0,0,0,0,0,5.842,5.8456,5.8437,5.8553,5.859,5.8621,5.8681,5.8657,5.8705,5.8696,5.868,5.8689,5.8788,5.8803,5.8745,5.8918,5.8853,5.8867,5.8905,5.8925,5.894,5.8934,5.8677,0,0,0,0,0,5.8449,5.8515,5.8542,5.8642,5.8662,5.8668,5.8703,5.8694,5.873,5.8744,5.8762,5.8796,5.8852,5.8889,5.8942,5.9059,5.9064,5.9112,5.9128,5.9141,5.9152,5.9212,5.9233,5.9011,5.9011,5.901,0,0,5.851,5.8538,5.858,5.8657,5.8684,5.8749,5.8682,5.8754,5.8802,5.8754,5.8845,5.8859,5.8896,5.9001,5.9049,5.9017,5.9215,5.9153,5.9163,5.9168,5.9225,5.9246,5.9264,5.9017,5.9016,5.9015,0,0,5.8654,5.8683,5.8768,5.8797,5.884,5.8844,5.8865,5.8899,5.8907,5.8999,5.8964,5.9018,5.9116,5.9144,5.917,5.9323,5.9292,5.934,5.9422,5.9481,5.9499,5.9514,5.9567,5.9586,5.9352,5.9352,5.9353,0,5.8723,5.8823,5.8815,5.889,5.8924,5.8886,5.8971,5.8998,5.9055,5.9078,5.9042,5.9163,5.9185,5.9296,5.9333,5.9357,5.9377,5.9336,5.9498,5.9513,5.9527,5.9577,5.9597,5.9358,5.9357,5.9357,5.9356,0,5.8905,5.8975,5.9038,5.9097,5.9137,5.9217,5.9217,5.9259,5.9245,5.9252,5.9343,5.9369,5.9425,5.9451,5.9438,5.9559,5.9538,5.95,5.9435,5.9554,5.96,5.9619,5.9366,5.9364,5.9362,5.9361,0,0,5.9095,5.9148,5.9171,5.9196,5.924,5.9292,5.9369,5.9426,5.9461,5.9501,5.9563,5.9646,5.9611,5.9641,5.9631,5.9683,5.9799,5.9638,5.9639,5.9666,5.9932,5.9958,5.9981,5.978,5.9783,5.9786,5.9928,0,5.9239,5.9376,5.937,5.9496,5.9559,5.9523,5.9589,5.9622,5.963,5.9681,5.9688,5.9747,5.9698,5.9716,5.9766,5.9775,5.9852,5.9765,5.9834,5.9837,5.9825,6.0005,6.0034,6.0167,5.9946,5.9949,5.9951,0,5.9427,5.9475,5.9608,5.9642,5.9668,5.9728,5.9779,5.983,5.9865,5.9866,5.99,5.988,5.9954,5.9888,5.9988,5.9929,5.9956,5.9965,5.997,5.9974,5.99,6.0013,6.0209,6.0228,5.998,5.9978,5.9976,0,5.9549,5.9648,5.974,5.9763,5.9804,5.9847,5.9866,5.9897,5.9931,5.9975,5.9996,6.0047,6.0075,6.0113,6.0107,6.006,6.0208,6.0142,6.0209,6.0209,6.024,6.0238,6.0442,6.0261,6.0261,6.0261,6.026,0,5.971,5.9793,5.9795,5.9852,5.9942,5.9933,6.0021,6.0035,6.0063,6.0118,6.009,6.0143,6.0132,6.0183,6.0178,6.026,6.0273,6.0274,6.0272,6.0276,6.0276,6.0293,6.0283,6.0266,6.0265,6.0264,6.0263,0,5.9862,5.9868,5.9965,5.9997,6.0007,6.0072,6.0097,6.0149,6.0154,6.0225,6.0241,6.0249,6.0308,6.0306,6.0372,6.0368,6.0469,6.0456,6.0458,6.0455,6.0521,6.0514,6.0741,6.077,6.0573,6.0575,6.0576,0,5.9964,6.0027,6.0066,6.0103,6.0125,6.0184,6.022,6.0212,6.0249,6.0293,6.0339,6.0396,6.0441,6.0536,6.0545,6.0595,6.0582,6.0659,6.0589,6.0591,6.0581,6.0577,6.0582,6.0672,6.0674,6.0676,6.0677,0,6.0144,6.0143,6.0197,6.0251,6.0294,6.0336,6.0374,6.0405,6.0401,6.0444,6.0505,6.054,6.0608,6.0664,6.0712,6.0727,6.0701,6.0699,6.0717,6.0721,6.0719,6.0719,6.0493,6.0693,6.0692,6.0691,6.069,6.0689,6.0272,6.0325,6.0361,6.0421,6.0449,6.0485,6.0535,6.0547,6.0599,6.0656,6.0647,6.0715,6.0746,6.0807,6.0828,6.0878,6.0851,6.0877,6.0883,6.089,6.0896,6.0712,6.0887,6.0887,6.0886,6.0886,6.0885,0,6.0448,6.0469,6.0525,6.058,6.0626,6.06,6.0641,6.068,6.0741,6.0773,6.0818,6.0887,6.0941,6.0955,6.1006,6.1043,6.1032,6.1057,6.1053,6.1056,6.0919,6.0898,6.1065,6.1065,6.1065,6.1065,6.1065,6.1065,6.0545,6.0634,6.0637,6.0738,6.0758,6.0826,6.0851,6.0883,6.0908,6.0988,6.1033,6.1042,6.1066,6.1119,6.1165,6.1168,6.1187,6.1216,6.1213,6.1084,6.1066,6.1049,6.1029,6.1221,6.1221,6.1346,6.1347,6.1348]}]]